Zurück zum Katalog

QIANFAN-144

AktivKommunikationPO
NORAD 69090·PAYLOAD·🇨🇳 China

Gestartet May 12, 2026 von Taiyuan Satellite Launch Center

Loading…

Nächste Überflüge (nächste 24 Stunden)

TLE

AktuellSource: Space-Track

Epoche: Sep 14, 2026, 21:29 UTC

1 69090U 26104T   26257.89522376  .00000112  00000-0  15458-3 0  9991
2 69090  88.9912 332.3107 0002521 106.2679 253.8750 13.51031027 17273

Verfolge QIANFAN-144 in Echtzeit mit AllMySat

Download on the App Store